Location: Unspecified
(0.0000°N, 0.0000°E)
Time: 21:47:05
(UTC+00:00)

Hubble Space Telescope - Pass Details

Date: 11 October 2017
Orbit: 538 x 541 km, 28.5° (Epoch: 11 December)

Event Time Altitude Azimuth Distance (km) Brightness Sun altitude
Rises 19:26:47 0° 237° (WSW) 2,673 5.4 -24.8°
Reaches altitude 10° 19:29:03 10° 235° (SW) 1,781 4.2 -25.4°
Enters shadow 19:31:59 44° 222° (SW) 739 1.7 -26.1°
